User: anonymous   Login
Location: Unspecified
(0.0000°N, 0.0000°E)
Time: 16:19:26
(UTC+00:00)
Language:

Intasat - Orbit

View from above orbital plane
View from above orbital plane
View from above satellite
View from above satellite

Ground track
Ground track

The orbit data is extracted from the following two-line orbital elements,

1 07531U 74089C   18115.12821853 -.00000053  00000-0 -56317-4 0  9996
2 07531 101.6812  83.4616 0011634  87.6395 334.9327 12.53498941987740
Epoch (UTC): 25 April 2018 03:04:38
Eccentricity: 0.0011634
inclination: 101.6812°
perigee height: 1441 km
apogee height: 1459 km
right ascension of ascending node: 83.4616°
argument of perigee: 87.6395°
revolutions per day: 12.53498941
mean anomaly at epoch: 334.9327°
orbit number at epoch: 98774

The dashed part of the orbit path shows where the satellite is in the earth's shadow,  

DLR